Theta_e
326 326 325 325 324 324 323 322 321 320 320 321 321 321 320 320 320 320 319 319 319 319 318 318 318 318 317 317 316 314 310 309 312 311 310 308 304 303 301 300 299 299 299 299 299 299 299 299 302 307 310 314
326 326 325 325 324 323 321 321 320 319 319 320 320 320 319 320 320 319 319 319 319 318 318 318 317 316 316 316 315 314 311 308 309 308 307 305 302 301 300 299 299 299 299 299 299 299 299 299 301 306 308 311
326 326 325 324 323 322 321 320 320 319 319 319 319 319 319 319 319 319 318 318 318 318 318 317 316 315 315 315 314 314 310 306 306 304 303 301 300 299 299 299 299 299 299 298 298 298 299 298 299 303 306 309
326 326 325 324 323 322 322 321 320 320 319 318 318 318 318 318 318 318 318 318 318 317 317 317 316 315 314 314 314 313 309 303 302 301 300 299 299 299 299 298 298 298 298 298 298 298 298 298 298 300 303 308
326 325 325 324 322 322 322 321 319 319 319 318 317 318 318 318 318 318 317 317 317 317 317 316 316 315 314 313 311 311 308 302 300 299 298 299 299 298 298 298 298 298 298 298 298 298 297 297 298 300 302 304
326 325 325 323 322 322 322 319 318 318 319 318 317 317 317 317 317 317 317 317 316 316 316 316 315 315 314 312 308 307 306 301 299 298 297 298 298 298 298 298 297 297 297 297 297 297 297 297 298 299 300 300
325 325 324 323 323 323 321 319 318 317 318 318 316 316 316 316 316 316 316 316 316 316 315 315 315 314 313 311 307 304 302 300 298 296 297 297 297 297 297 297 297 297 297 297 297 296 296 297 297 298 296 298
325 325 324 324 323 322 321 320 319 318 318 317 316 316 315 315 315 315 314 314 315 315 315 315 314 313 312 310 307 302 300 299 297 296 296 297 297 297 297 297 297 297 297 297 296 296 296 297 296 296 295 299
325 325 324 323 323 322 321 320 319 318 317 316 316 316 315 315 315 313 313 313 313 313 313 313 312 311 309 308 305 300 301 300 296 296 296 296 296 296 296 296 296 296 296 296 296 296 296 297 296 296 295 298
325 324 323 323 323 321 320 319 319 317 317 317 317 316 314 314 314 312 312 312 312 312 312 311 310 309 308 307 303 301 305 303 297 296 296 296 296 296 296 296 296 296 296 296 296 296 296 296 296 296 296 295
324 324 323 322 322 321 320 318 318 318 317 317 316 315 314 313 313 312 311 310 310 311 311 310 308 307 306 305 302 302 304 303 299 298 295 295 295 295 296 295 296 295 295 295 295 296 295 296 296 295 296 295
323 322 321 321 321 320 320 318 317 317 317 317 316 315 313 313 312 311 310 309 308 308 308 308 306 305 303 301 299 299 300 298 298 298 296 295 295 295 295 295 295 295 295 295 295 296 295 295 295 295 296 295
322 321 321 321 321 320 319 318 316 316 317 317 315 314 313 313 312 311 311 309 307 306 306 305 304 302 299 298 297 296 296 296 296 297 296 295 295 295 295 295 295 295 295 295 295 295 295 295 295 295 295 295
321 320 320 321 320 320 319 317 316 316 316 316 315 314 313 313 312 312 311 310 309 307 305 303 301 299 296 295 295 294 295 295 295 295 295 295 295 294 294 295 295 294 294 294 294 294 295 295 294 295 295 295
321 320 320 319 319 319 318 317 316 316 316 315 314 314 313 312 312 312 312 311 309 308 306 303 301 298 296 295 296 296 296 296 294 294 295 295 294 294 294 294 294 294 294 294 294 294 294 294 294 294 294 295
320 319 318 318 318 318 318 317 316 316 315 315 314 313 312 312 312 312 311 311 310 309 308 303 300 299 296 296 297 296 295 294 294 293 294 294 294 294 294 294 294 294 294 294 294 294 294 294 294 294 294 294
318 318 318 317 317 317 317 316 316 315 315 314 314 313 312 312 311 311 311 311 310 310 309 304 299 298 297 296 296 295 294 293 293 293 293 293 293 293 293 293 293 293 294 293 293 294 294 294 294 294 294 294
317 317 317 316 317 317 316 316 315 315 314 314 313 312 312 311 311 311 311 310 309 309 308 304 299 297 296 296 295 295 295 294 293 293 293 293 293 293 293 293 292 293 293 293 293 293 293 294 294 294 294 294
316 317 317 316 316 316 316 315 315 314 313 313 312 312 311 311 310 310 310 310 308 307 306 304 301 300 300 300 300 298 296 294 293 294 293 293 292 292 292 292 293 292 292 292 292 292 293 293 293 293 293 294
316 316 316 316 316 316 315 315 314 314 313 312 312 311 311 310 310 310 309 309 308 306 305 304 304 304 304 304 303 302 299 296 294 293 294 293 293 293 292 292 292 293 293 292 292 292 292 293 293 293 293 293
314 315 315 315 315 315 314 314 313 313 312 312 311 311 310 310 309 309 309 308 307 306 306 306 305 305 304 303 303 302 301 298 295 294 293 293 293 293 293 293 292 292 292 292 292 293 293 292 292 292 292 292
312 313 314 314 313 313 313 313 312 312 311 311 310 310 309 308 308 307 307 306 306 306 306 305 305 304 303 302 301 300 299 297 295 294 293 292 292 292 292 293 292 292 291 292 292 292 292 292 291 291 291 292
311 312 313 313 312 312 312 311 311 310 310 310 309 308 307 307 306 306 305 305 305 305 305 305 304 303 302 301 300 298 297 295 294 293 291 291 291 291 291 291 291 291 291 291 291 291 291 291 291 291 291 291
309 310 311 311 311 310 310 309 309 309 308 308 307 307 306 305 305 304 303 303 302 302 303 302 301 300 299 298 297 296 294 293 293 292 291 290 290 290 290 290 290 290 290 290 290 290 290 290 291 291 291 291
307 308 309 309 309 308 308 307 307 307 306 306 305 305 304 304 303 302 301 301 300 299 299 297 296 295 295 294 294 293 293 292 292 291 291 290 290 290 289 289 289 290 290 290 290 290 291 291 291 291 291 292
305 306 306 307 307 306 306 305 305 305 304 304 303 303 302 302 301 301 300 299 298 296 295 294 293 293 293 292 292 292 292 292 291 291 291 290 290 290 290 290 290 290 290 290 290 290 291 291 292 292 293 293
304 304 304 304 305 304 304 303 303 303 302 301 301 301 300 300 299 298 297 296 295 293 293 292 292 292 292 292 291 291 291 291 291 291 291 291 290 290 290 290 290 290 290 290 290 290 290 291 292 292 293 293
302 303 302 302 302 302 302 301 300 300 299 299 298 298 298 297 296 295 294 293 292 292 292 292 292 292 291 291 291 291 291 291 291 291 291 291 291 291 290 290 290 290 290 290 290 290 290 290 291 291 292 292
298 300 300 300 300 299 299 298 297 297 297 295 295 295 294 293 292 292 292 292 292 291 291 291 291 291 291 291 291 291 291 291 291 291 291 290 290 290 290 290 290 289 289 289 289 289 289 289 289 290 291 291
296 297 297 297 297 297 297 296 294 294 293 292 292 292 291 291 290 290 291 290 291 291 290 291 290 290 290 290 290 290 290 290 290 290 290 290 290 290 290 290 290 289 289 289 289 289 289 288 288 288 289 289
294 295 295 295 295 294 294 294 292 290 290 290 290 289 289 289 289 289 289 290 290 290 290 290 289 290 290 289 289 289 289 289 289 289 289 289 289 289 289 289 289 289 289 289 288 288 288 288 288 287 288 287
Wind_Speed
13 12 12 11 9 6 3 1 1 2 4 5 7 10 11 10 10 10 10 11 9 9 10 11 12 13 11 8 3 3 3 3 4 4 6 4 2 4 4 5 6 5 5 4 4 5 6 7 8 9 9 10
14 13 11 10 7 3 2 2 3 3 4 4 6 7 10 10 10 11 11 11 12 11 11 12 12 13 12 9 5 5 5 1 3 5 6 2 3 4 4 5 4 4 3 3 3 4 5 7 8 9 9 8
15 13 11 9 4 2 3 3 3 3 4 3 4 5 8 10 11 12 12 13 13 13 12 13 12 12 12 10 7 7 6 4 4 4 3 2 3 3 3 3 3 2 2 3 3 4 5 6 8 9 9 6
15 13 11 8 2 2 3 2 1 2 3 3 3 4 6 8 11 13 13 14 13 13 12 12 13 12 11 10 9 8 6 6 6 3 2 3 3 3 3 3 2 2 2 2 3 3 5 6 9 9 8 8
15 13 10 7 4 4 4 3 1 1 3 3 2 3 6 8 10 13 14 14 14 13 12 12 13 12 10 10 9 8 6 6 5 1 4 4 4 3 3 3 3 3 3 2 2 3 5 7 8 8 6 9
14 11 10 8 6 7 6 3 2 1 4 1 1 2 5 8 9 11 12 12 12 12 13 12 12 12 11 11 9 8 6 4 3 2 4 4 4 3 3 4 4 4 3 3 3 3 5 6 7 5 5 8
13 11 11 8 7 8 6 3 2 1 2 1 2 1 4 7 6 6 8 9 10 11 12 12 13 13 13 12 10 8 6 3 2 4 4 4 4 4 4 5 5 5 5 5 5 5 6 7 5 4 6 7
11 11 11 8 8 8 5 3 3 3 2 2 3 3 3 5 4 4 6 8 9 10 12 13 15 15 15 14 11 9 6 3 4 4 4 4 5 5 5 6 6 6 6 6 6 6 7 6 4 4 6 8
12 12 10 8 9 8 6 5 5 5 4 4 3 3 4 4 4 4 5 5 6 8 10 12 12 11 12 12 9 6 4 4 5 5 5 5 6 6 6 6 6 6 6 6 7 7 7 6 5 6 7 8
13 13 10 9 10 9 7 6 6 6 6 5 4 3 4 4 4 5 5 4 6 6 6 7 6 5 7 9 5 1 2 5 5 5 6 5 6 7 7 7 7 7 7 7 7 7 6 6 7 7 8 8
14 13 11 10 10 8 7 6 6 7 7 6 5 4 5 4 4 6 7 6 9 10 8 8 8 7 7 8 5 1 4 7 6 7 8 6 7 8 8 8 8 8 8 8 9 8 8 7 8 9 9 9
14 13 11 11 11 9 8 8 7 7 8 8 7 6 7 7 6 6 8 7 8 10 11 10 9 8 8 8 7 5 6 8 8 10 10 8 8 9 9 10 10 10 10 10 10 10 9 9 9 10 10 11
12 11 10 12 12 12 11 10 9 9 9 9 8 6 7 8 9 9 8 8 8 8 9 8 7 8 7 7 7 6 7 9 8 11 13 11 10 10 11 12 11 11 11 11 12 11 11 11 11 12 11 12
10 10 11 13 15 15 13 11 10 10 10 10 9 8 8 8 10 10 10 10 11 9 8 7 7 7 6 6 6 6 8 9 8 11 14 12 12 13 13 13 13 12 13 13 13 13 12 12 13 13 13 13
10 11 12 15 17 16 14 12 11 11 12 11 10 9 9 9 9 10 11 13 14 13 10 9 9 8 6 7 8 9 9 9 8 12 13 12 14 14 14 15 15 14 14 14 14 15 14 14 14 14 15 15
11 12 14 17 18 17 15 13 12 12 12 12 11 10 10 9 9 10 11 12 14 14 12 10 10 10 9 10 11 9 8 8 9 12 13 12 13 15 15 16 17 16 16 16 17 17 16 16 16 16 17 17
16 17 19 20 20 17 15 14 14 14 13 13 13 12 11 10 10 10 11 11 12 13 11 11 12 12 11 11 11 10 8 9 9 10 12 12 12 13 14 15 16 17 17 17 18 19 19 18 18 18 19 19
20 21 23 21 19 17 15 15 15 15 15 15 15 14 13 12 11 11 11 11 11 12 12 12 12 12 11 10 12 12 11 11 9 9 10 10 11 13 14 14 15 16 17 17 18 19 20 20 20 21 21 21
23 23 24 21 18 18 18 18 18 17 17 17 17 16 14 13 12 11 11 11 11 12 12 12 11 11 11 12 13 12 12 13 13 12 11 11 12 13 13 13 14 15 16 16 17 18 20 22 22 23 22 22
23 23 23 22 20 19 20 19 19 19 18 18 17 16 15 14 13 12 12 11 11 12 12 12 12 12 12 13 13 13 13 14 15 15 14 14 14 14 14 14 15 15 15 16 16 18 21 22 23 22 22 22
20 21 21 20 20 19 19 19 19 19 19 18 17 16 15 14 13 13 12 12 12 12 12 12 12 12 13 13 14 14 15 15 15 16 16 16 17 17 16 16 17 17 18 18 18 19 21 22 22 22 22 23
17 18 19 19 19 19 19 19 19 19 19 18 17 15 15 13 12 11 10 11 11 12 13 13 13 13 14 14 14 15 15 15 15 16 16 16 17 17 17 17 17 18 19 20 20 22 22 22 22 23 23 24
17 18 19 19 19 19 19 19 19 18 18 17 16 15 13 12 10 9 9 10 11 12 13 14 14 15 16 16 16 15 15 15 15 15 15 15 16 16 17 16 17 19 20 20 21 23 23 23 23 23 24 24
16 17 19 20 20 19 19 18 18 17 16 15 14 13 12 11 9 9 8 9 10 12 14 14 14 15 16 16 15 15 15 15 15 15 15 15 16 16 15 15 18 20 21 20 21 22 22 22 22 23 23 23
16 18 19 20 20 19 18 17 17 16 14 13 12 11 10 9 9 8 8 9 11 12 12 12 11 12 13 13 13 13 13 14 14 14 14 15 15 15 14 15 17 19 19 20 21 22 22 21 20 20 20 19
17 17 17 18 18 17 16 15 14 14 13 11 10 9 8 8 8 8 9 10 11 11 11 10 9 10 10 11 11 11 11 12 12 13 13 13 14 14 14 14 15 17 17 18 19 21 22 21 19 16 12 10
15 15 14 14 14 14 14 13 12 12 11 9 9 8 8 8 8 9 10 10 10 9 9 8 8 8 9 9 10 10 10 11 11 12 13 13 13 13 13 12 13 15 15 17 19 18 17 18 19 16 13 11
13 13 12 12 13 13 13 13 12 11 10 9 8 8 8 9 9 8 8 8 7 7 7 7 7 7 7 8 9 9 9 10 11 11 11 12 12 12 12 11 11 12 13 15 17 15 14 15 15 12 13 13
13 14 14 15 15 14 14 13 12 11 10 10 9 9 9 9 8 7 7 6 6 5 5 5 5 5 6 6 7 8 8 9 9 10 10 11 12 12 12 12 11 11 11 13 13 12 12 11 9 9 14 17
18 18 17 17 16 15 15 14 13 12 12 11 11 10 9 8 8 6 6 5 4 4 3 3 3 4 4 5 6 6 7 7 8 8 9 10 11 11 11 12 12 11 10 12 12 10 9 7 8 14 19 20
19 18 18 17 16 16 16 15 15 14 13 12 11 10 9 8 7 6 5 4 3 3 2 2 2 3 4 4 5 6 7 7 8 8 9 10 11 11 11 12 13 12 11 12 12 10 10 10 11 14 16 16
Wind_Direction
171 168 172 174 172 173 172 161 89 100 116 129 173 195 195 186 189 200 215 224 227 238 247 254 265 272 275 277 284 323 345 87 121 179 225 246 157 149 156 150 147 139 131 130 134 133 132 139 144 144 134 139
172 169 169 169 163 164 164 112 69 86 103 126 154 185 197 196 200 204 210 219 231 244 254 260 271 281 280 279 289 323 330 21 166 214 238 230 148 154 154 154 152 143 141 138 141 137 137 144 150 155 150 162
172 170 168 166 156 170 165 93 65 97 95 122 146 163 190 204 210 211 212 218 229 240 252 260 271 284 286 287 295 314 321 288 245 245 247 166 159 166 161 163 160 157 155 152 154 146 142 148 158 168 170 172
171 170 168 166 157 171 176 124 94 138 128 133 161 181 190 204 215 218 220 223 231 240 250 260 270 283 293 300 301 305 310 296 286 276 178 163 180 184 179 181 180 182 166 168 165 155 154 157 171 183 185 171
169 171 173 170 166 170 182 147 84 230 189 138 144 205 205 207 215 219 222 227 233 242 252 260 271 281 291 299 298 292 293 303 308 242 164 180 201 200 201 199 198 199 182 180 171 170 173 175 189 196 189 175
172 177 180 177 172 179 181 136 72 251 217 149 106 218 220 217 220 223 225 229 235 242 250 256 266 277 283 287 287 282 278 293 301 184 172 192 212 218 226 219 217 212 199 193 183 185 190 200 208 197 189 188
179 182 183 182 178 187 182 140 111 159 214 160 87 181 233 235 237 241 236 233 236 241 248 255 262 271 277 277 279 276 270 275 227 183 185 207 225 234 241 238 233 219 208 205 196 195 203 218 224 194 191 196
186 188 188 187 187 193 188 172 169 170 203 167 109 136 200 238 241 245 244 238 242 247 252 258 261 265 270 272 277 275 263 250 214 201 206 222 238 243 249 249 245 234 222 214 205 206 213 220 216 205 203 196
196 194 192 196 197 192 190 197 193 182 177 169 159 165 187 222 248 259 251 234 234 248 256 257 258 264 270 270 273 275 254 232 217 219 223 228 245 250 256 256 253 249 243 235 228 226 228 229 219 216 218 208
202 199 197 203 201 186 189 200 194 186 178 181 199 192 186 211 244 248 237 215 195 211 233 233 227 225 251 263 270 292 251 248 236 238 237 234 248 252 258 263 262 261 261 259 256 252 247 243 239 230 229 226
195 198 199 208 205 190 193 196 193 201 203 203 207 185 163 175 213 228 226 210 191 195 205 210 212 213 228 251 267 232 242 259 257 254 249 243 254 258 262 266 268 269 269 267 265 263 257 252 252 248 243 242
191 200 203 211 207 196 199 198 199 213 217 211 210 195 171 172 181 207 223 216 200 198 205 212 220 231 239 251 262 251 252 267 270 266 261 256 260 264 267 266 267 269 269 267 266 264 260 255 252 253 254 253
189 199 205 211 204 198 201 201 200 209 218 214 211 196 184 189 187 196 216 228 227 214 207 211 221 235 242 249 254 249 254 266 272 271 267 265 267 267 268 267 267 270 269 268 269 268 264 260 255 254 253 254
193 203 207 209 203 200 200 201 201 204 212 216 214 201 197 205 205 209 217 230 240 235 221 209 218 231 238 250 253 246 249 257 266 272 273 275 276 275 274 273 272 273 274 274 272 270 267 266 263 261 258 257
207 206 200 201 199 199 201 203 203 205 212 218 218 211 210 214 220 226 228 236 245 247 241 228 227 232 230 239 243 245 255 264 269 273 277 280 278 278 279 280 280 278 280 281 279 275 272 271 269 268 266 264
190 185 190 197 197 199 203 203 204 209 212 218 219 214 214 217 223 232 237 243 249 253 255 252 247 240 235 240 245 250 263 272 271 271 272 271 273 276 278 281 281 280 281 281 280 279 276 275 274 273 271 268
176 180 191 196 198 202 205 203 207 212 213 217 219 216 215 218 224 233 243 248 252 255 256 255 254 253 254 260 264 263 261 260 260 265 267 263 266 270 271 276 279 280 280 280 280 280 279 277 276 274 271 269
184 191 197 198 203 208 208 206 208 210 212 216 217 218 219 221 227 233 244 252 256 258 256 257 259 264 269 273 274 274 271 264 253 252 259 260 259 262 266 270 274 276 277 278 277 278 278 277 275 273 272 272
194 197 201 205 211 213 211 209 209 211 212 214 214 217 220 222 227 230 238 248 256 259 260 263 265 270 273 275 278 281 280 272 261 254 253 252 250 253 258 261 266 269 271 273 274 275 274 273 272 271 272 274
199 201 205 211 214 213 213 211 213 216 217 218 219 222 224 228 230 231 235 241 249 256 261 264 267 272 275 278 280 280 275 270 267 265 261 259 256 253 253 253 255 258 260 262 264 265 265 266 268 271 274 276
202 206 209 212 212 210 212 213 214 216 218 221 224 226 227 228 229 232 235 237 242 250 258 263 268 272 275 276 277 278 276 273 271 271 270 270 269 268 265 263 262 261 262 262 263 265 269 273 277 279 280 280
205 207 211 212 210 208 209 212 211 213 216 217 219 221 221 221 222 227 232 239 245 250 256 263 270 274 275 274 273 273 274 272 271 270 271 270 270 272 273 275 275 272 270 272 274 275 279 282 284 283 283 283
209 207 209 209 207 206 206 208 208 210 213 213 213 214 216 217 220 227 236 248 256 261 266 271 273 274 272 271 270 269 269 269 268 267 268 268 267 268 273 277 278 276 275 277 278 279 280 282 284 284 284 285
206 205 204 204 202 202 201 201 203 205 207 207 208 210 213 218 224 232 242 253 261 269 273 271 268 266 266 268 268 268 269 268 268 268 268 269 269 271 275 277 277 279 282 283 281 280 282 285 286 287 289 290
194 198 198 198 198 197 195 195 197 199 200 203 206 211 216 222 229 236 245 255 262 266 266 263 259 259 263 266 268 269 270 272 273 273 273 273 275 276 278 278 279 283 287 289 287 285 286 286 288 292 297 300
186 191 194 196 195 194 192 189 193 197 197 203 207 212 221 228 236 243 249 253 254 254 254 253 255 258 263 268 271 273 274 276 277 277 277 277 279 282 282 284 287 290 292 293 294 295 294 291 291 292 293 295
187 186 188 191 191 191 192 188 189 195 195 201 207 214 225 233 239 241 241 241 239 241 243 247 253 257 263 269 273 275 275 278 279 280 281 280 281 282 283 286 288 293 297 296 296 299 301 301 302 298 286 278
193 194 191 190 187 186 188 183 180 185 187 193 204 211 216 220 221 221 223 223 225 230 235 241 248 254 261 266 270 274 276 277 279 280 282 283 283 282 283 282 283 290 297 299 302 306 306 305 305 301 291 284
176 186 189 188 184 183 183 178 174 178 178 180 188 192 192 192 191 194 199 202 206 214 223 231 240 247 256 264 269 275 278 280 283 285 286 287 289 289 290 287 285 289 292 295 304 314 316 314 306 292 292 294
169 175 180 181 180 180 179 174 169 168 167 166 168 167 165 165 166 171 177 178 188 196 206 221 233 248 258 267 275 282 287 290 291 293 294 295 296 297 297 295 292 289 288 289 293 302 310 308 295 292 295 300
173 176 175 175 174 172 171 168 159 152 153 153 152 151 150 151 152 155 162 165 175 184 201 227 248 267 275 283 289 293 297 298 300 301 302 302 302 301 301 299 297 294 290 286 286 288 284 273 271 280 290 298